Time,TemperatureF,DewpointF,PressureIn,WindDirection,WindDirectionDegrees,WindSpeedMPH,WindSpeedGustMPH,Humidity,HourlyPrecipIn,Conditions,Clouds,dailyrainin,SoftwareType,DateUTC
2013-03-03 00:10:00,36.2,32.1,29.63,WSW,255,1.0,1.0,85,0.00,,,0.00,Wunderground v.1.15,2013-03-03 05:10:00,
2013-03-03 00:20:00,36.3,32.2,29.63,WSW,237,0.0,18.0,85,0.00,,,0.00,Wunderground v.1.15,2013-03-03 05:20:00,
2013-03-03 00:29:00,36.3,31.9,29.63,West,281,0.0,18.0,84,0.00,,,0.00,Wunderground v.1.15,2013-03-03 05:29:00,
2013-03-03 00:40:00,36.5,31.8,29.63,West,281,1.0,1.0,83,0.00,,,0.00,Wunderground v.1.15,2013-03-03 05:40:00,
2013-03-03 00:50:00,36.6,31.6,29.63,SSW,207,1.0,1.0,82,0.00,,,0.00,Wunderground v.1.15,2013-03-03 05:50:00,
2013-03-03 00:59:00,36.6,31.6,29.63,NW,307,1.0,18.0,82,0.00,,,0.00,Wunderground v.1.15,2013-03-03 05:59:00,
2013-03-03 01:10:00,36.6,32.5,29.63,West,274,1.0,18.0,85,0.00,,,0.00,Wunderground v.1.15,2013-03-03 06:10:00,
2013-03-03 01:20:00,36.5,33.3,29.63,WSW,255,1.0,18.0,88,0.00,,,0.00,Wunderground v.1.15,2013-03-03 06:20:00,
2013-03-03 01:30:00,36.2,33.5,29.62,West,264,2.0,2.0,90,0.00,,,0.00,Wunderground v.1.15,2013-03-03 06:30:00,
2013-03-03 01:40:00,36.0,33.6,29.62,West,270,2.0,18.0,91,0.00,,,0.00,Wunderground v.1.15,2013-03-03 06:40:00,
2013-03-03 01:50:00,35.9,33.5,29.62,West,266,2.0,18.0,91,0.00,,,0.00,Wunderground v.1.15,2013-03-03 06:50:00,
2013-03-03 02:00:00,35.9,33.8,29.62,WNW,287,2.0,2.0,92,0.00,,,0.00,Wunderground v.1.15,2013-03-03 07:00:00,
2013-03-03 02:10:00,35.9,33.8,29.62,West,274,2.0,18.0,92,0.00,,,0.00,Wunderground v.1.15,2013-03-03 07:10:00,
2013-03-03 02:19:00,35.7,33.6,29.62,West,263,2.0,18.0,92,0.00,,,0.00,Wunderground v.1.15,2013-03-03 07:19:00,
2013-03-03 02:30:00,35.6,33.8,29.62,West,268,1.0,18.0,93,0.00,,,0.00,Wunderground v.1.15,2013-03-03 07:30:00,
2013-03-03 02:40:00,35.5,33.7,29.62,West,281,1.0,18.0,93,0.00,,,0.00,Wunderground v.1.15,2013-03-03 07:40:00,
2013-03-03 02:49:00,35.5,33.9,29.61,West,281,2.0,2.0,94,0.00,,,0.00,Wunderground v.1.15,2013-03-03 07:49:00,
2013-03-03 03:00:00,35.5,33.9,29.61,WSW,256,2.0,2.0,94,0.00,,,0.00,Wunderground v.1.15,2013-03-03 08:00:00,
2013-03-03 03:10:00,35.4,33.8,29.61,West,262,1.0,1.0,94,0.00,,,0.00,Wunderground v.1.15,2013-03-03 08:10:00,
2013-03-03 03:20:00,35.3,33.7,29.61,NW,312,1.0,18.0,94,0.00,,,0.00,Wunderground v.1.15,2013-03-03 08:20:00,
2013-03-03 03:30:00,35.3,33.7,29.61,NNE,27,1.0,18.0,94,0.00,,,0.00,Wunderground v.1.15,2013-03-03 08:30:00,
2013-03-03 03:40:00,35.3,33.7,29.61,NNW,340,1.0,1.0,94,0.00,,,0.00,Wunderground v.1.15,2013-03-03 08:40:00,
2013-03-03 03:50:00,35.2,33.4,29.61,WNW,290,1.0,18.0,93,0.00,,,0.00,Wunderground v.1.15,2013-03-03 08:50:00,
2013-03-03 04:00:00,35.2,33.4,29.61,WSW,253,1.0,18.0,93,0.00,,,0.00,Wunderground v.1.15,2013-03-03 09:00:00,
2013-03-03 04:09:00,35.2,33.4,29.61,West,280,1.0,18.0,93,0.00,,,0.00,Wunderground v.1.15,2013-03-03 09:09:00,
2013-03-03 04:20:00,35.2,33.4,29.61,NW,309,1.0,18.0,93,0.00,,,0.00,Wunderground v.1.15,2013-03-03 09:20:00,
2013-03-03 04:30:00,35.2,33.1,29.62,WSW,257,2.0,2.0,92,0.00,,,0.00,Wunderground v.1.15,2013-03-03 09:30:00,
2013-03-03 04:40:00,35.2,32.8,29.62,NW,315,2.0,2.0,91,0.00,,,0.00,Wunderground v.1.15,2013-03-03 09:40:00,
2013-03-03 04:50:00,35.2,33.1,29.62,NW,309,1.0,1.0,92,0.00,,,0.00,Wunderground v.1.15,2013-03-03 09:50:00,
2013-03-03 05:00:00,35.2,32.8,29.62,WSW,255,2.0,2.0,91,0.00,,,0.00,Wunderground v.1.15,2013-03-03 10:00:00,
2013-03-03 05:10:00,35.1,32.2,29.62,West,272,2.0,2.0,89,0.00,,,0.00,Wunderground v.1.15,2013-03-03 10:10:00,
2013-03-03 05:20:00,34.9,31.7,29.62,NW,316,1.0,1.0,88,0.00,,,0.00,Wunderground v.1.15,2013-03-03 10:20:00,
2013-03-03 05:30:00,34.7,31.2,29.62,WNW,295,1.0,1.0,87,0.00,,,0.00,Wunderground v.1.15,2013-03-03 10:30:00,
2013-03-03 05:40:00,34.5,30.7,29.62,WNW,287,2.0,18.0,86,0.00,,,0.00,Wunderground v.1.15,2013-03-03 10:40:00,
2013-03-03 05:50:00,34.5,30.7,29.62,WNW,283,1.0,1.0,86,0.00,,,0.00,Wunderground v.1.15,2013-03-03 10:50:00,
2013-03-03 06:00:00,34.4,30.6,29.63,West,269,1.0,18.0,86,0.00,,,0.00,Wunderground v.1.15,2013-03-03 11:00:00,
2013-03-03 06:10:00,34.4,30.6,29.63,NW,312,1.0,18.0,86,0.00,,,0.00,Wunderground v.1.15,2013-03-03 11:10:00,
2013-03-03 06:20:00,34.4,30.4,29.63,WNW,299,1.0,18.0,85,0.00,,,0.00,Wunderground v.1.15,2013-03-03 11:20:00,
2013-03-03 06:30:00,34.4,30.4,29.63,NNW,331,1.0,1.0,85,0.00,,,0.00,Wunderground v.1.15,2013-03-03 11:30:00,
2013-03-03 06:40:00,34.4,30.4,29.64,WSW,255,1.0,1.0,85,0.00,,,0.00,Wunderground v.1.15,2013-03-03 11:40:00,
2013-03-03 06:50:00,34.4,30.4,29.64,SW,225,1.0,18.0,85,0.00,,,0.00,Wunderground v.1.15,2013-03-03 11:50:00,
2013-03-03 06:59:00,34.4,30.4,29.64,WNW,291,1.0,18.0,85,0.00,,,0.00,Wunderground v.1.15,2013-03-03 11:59:00,
2013-03-03 07:10:00,34.5,30.5,29.64,SW,235,1.0,18.0,85,0.00,,,0.00,Wunderground v.1.15,2013-03-03 12:10:00,
2013-03-03 07:20:00,34.5,30.5,29.64,WNW,299,1.0,18.0,85,0.00,,,0.00,Wunderground v.1.15,2013-03-03 12:20:00,
2013-03-03 07:30:00,34.5,30.5,29.64,WNW,284,2.0,2.0,85,0.00,,,0.00,Wunderground v.1.15,2013-03-03 12:30:00,
2013-03-03 07:40:00,34.6,30.6,29.63,WNW,295,1.0,18.0,85,0.00,,,0.00,Wunderground v.1.15,2013-03-03 12:40:00,
2013-03-03 07:50:00,34.6,30.6,29.63,NNW,346,2.0,18.0,85,0.00,,,0.00,Wunderground v.1.15,2013-03-03 12:50:00,
2013-03-03 08:00:00,34.7,30.7,29.63,WNW,302,1.0,18.0,85,0.00,,,0.00,Wunderground v.1.15,2013-03-03 13:00:00,
2013-03-03 08:10:00,34.9,30.6,29.64,NNW,328,1.0,18.0,84,0.00,,,0.00,Wunderground v.1.15,2013-03-03 13:10:00,
2013-03-03 08:20:00,34.9,30.6,29.64,NNW,335,2.0,18.0,84,0.00,,,0.00,Wunderground v.1.15,2013-03-03 13:20:00,
2013-03-03 08:30:00,35.1,30.5,29.64,WNW,282,3.0,3.0,83,0.00,,,0.00,Wunderground v.1.15,2013-03-03 13:30:00,
2013-03-03 08:40:00,35.2,30.3,29.63,SW,233,2.0,18.0,82,0.00,,,0.00,Wunderground v.1.15,2013-03-03 13:40:00,
2013-03-03 08:50:00,35.5,30.5,29.63,West,278,2.0,18.0,82,0.00,,,0.00,Wunderground v.1.15,2013-03-03 13:50:00,
2013-03-03 09:00:00,35.6,30.6,29.63,WNW,295,2.0,18.0,82,0.00,,,0.00,Wunderground v.1.15,2013-03-03 14:00:00,
2013-03-03 09:10:00,35.7,30.7,29.63,West,272,2.0,18.0,82,0.00,,,0.00,Wunderground v.1.15,2013-03-03 14:10:00,
2013-03-03 09:20:00,35.9,31.2,29.63,West,274,2.0,2.0,83,0.00,,,0.00,Wunderground v.1.15,2013-03-03 14:20:00,
2013-03-03 09:30:00,36.3,31.3,29.63,WSW,248,1.0,18.0,82,0.00,,,0.00,Wunderground v.1.15,2013-03-03 14:30:00,
2013-03-03 09:40:00,36.5,31.2,29.62,West,278,1.0,18.0,81,0.00,,,0.00,Wunderground v.1.15,2013-03-03 14:40:00,
2013-03-03 09:49:00,36.7,31.4,29.62,WSW,238,2.0,18.0,81,0.00,,,0.00,Wunderground v.1.15,2013-03-03 14:49:00,
2013-03-03 10:00:00,36.6,31.3,29.62,WNW,299,2.0,2.0,81,0.00,,,0.00,Wunderground v.1.15,2013-03-03 15:00:00,
2013-03-03 10:10:00,36.5,31.2,29.62,WNW,290,2.0,2.0,81,0.00,,,0.00,Wunderground v.1.15,2013-03-03 15:10:00,
2013-03-03 10:20:00,37.0,31.7,29.62,West,280,1.0,18.0,81,0.00,,,0.00,Wunderground v.1.15,2013-03-03 15:20:00,
2013-03-03 10:30:00,36.8,31.2,29.62,WNW,302,2.0,2.0,80,0.00,,,0.00,Wunderground v.1.15,2013-03-03 15:30:00,
2013-03-03 10:40:00,37.1,31.5,29.62,West,278,1.0,18.0,80,0.00,,,0.00,Wunderground v.1.15,2013-03-03 15:40:00,
2013-03-03 10:50:00,36.9,31.0,29.62,WSW,255,2.0,18.0,79,0.00,,,0.00,Wunderground v.1.15,2013-03-03 15:50:00,
2013-03-03 11:00:00,36.8,30.9,29.62,WNW,284,2.0,2.0,79,0.00,,,0.00,Wunderground v.1.15,2013-03-03 16:00:00,
2013-03-03 11:09:00,36.7,30.8,29.62,WNW,290,1.0,18.0,79,0.00,,,0.00,Wunderground v.1.15,2013-03-03 16:09:00,
2013-03-03 11:20:00,36.5,30.6,29.62,WNW,297,2.0,2.0,79,0.00,,,0.00,Wunderground v.1.15,2013-03-03 16:20:00,
2013-03-03 11:30:00,36.5,30.6,29.62,West,266,1.0,1.0,79,0.00,,,0.00,Wunderground v.1.15,2013-03-03 16:30:00,
2013-03-03 11:40:00,36.8,30.9,29.61,West,271,1.0,18.0,79,0.00,,,0.00,Wunderground v.1.15,2013-03-03 16:40:00,
2013-03-03 11:50:00,37.1,31.2,29.61,WNW,287,1.0,1.0,79,0.00,,,0.00,Wunderground v.1.15,2013-03-03 16:50:00,
2013-03-03 12:00:00,37.4,31.2,29.61,West,281,1.0,18.0,78,0.00,,,0.00,Wunderground v.1.15,2013-03-03 17:00:00,
2013-03-03 12:10:00,37.4,31.2,29.60,NW,312,1.0,1.0,78,0.00,,,0.00,Wunderground v.1.15,2013-03-03 17:10:00,
2013-03-03 12:20:00,37.7,31.5,29.60,West,259,1.0,18.0,78,0.00,,,0.00,Wunderground v.1.15,2013-03-03 17:20:00,
2013-03-03 12:30:00,37.8,31.6,29.60,West,271,1.0,18.0,78,0.00,,,0.00,Wunderground v.1.15,2013-03-03 17:30:00,
2013-03-03 12:40:00,38.0,31.1,29.60,WNW,301,2.0,18.0,76,0.00,,,0.00,Wunderground v.1.15,2013-03-03 17:40:00,
2013-03-03 12:50:00,38.1,31.2,29.59,NE,47,2.0,18.0,76,0.00,,,0.00,Wunderground v.1.15,2013-03-03 17:50:00,
2013-03-03 13:00:00,38.7,31.5,29.59,WNW,284,1.0,18.0,75,0.00,,,0.00,Wunderground v.1.15,2013-03-03 18:00:00,
2013-03-03 13:10:00,39.4,32.5,29.58,SW,222,1.0,1.0,76,0.00,,,0.00,Wunderground v.1.15,2013-03-03 18:10:00,
2013-03-03 13:20:00,39.0,32.4,29.58,NW,313,2.0,2.0,77,0.00,,,0.00,Wunderground v.1.15,2013-03-03 18:20:00,
2013-03-03 13:29:00,38.6,32.6,29.58,WSW,253,2.0,2.0,79,0.00,,,0.00,Wunderground v.1.15,2013-03-03 18:29:00,
2013-03-03 13:40:00,38.3,32.4,29.58,WSW,241,2.0,2.0,79,0.00,,,0.00,Wunderground v.1.15,2013-03-03 18:40:00,
2013-03-03 13:50:00,38.2,32.6,29.58,SW,229,1.0,1.0,80,0.00,,,0.00,Wunderground v.1.15,2013-03-03 18:50:00,
2013-03-03 14:00:00,38.2,32.6,29.58,SW,218,2.0,2.0,80,0.00,,,0.00,Wunderground v.1.15,2013-03-03 19:00:00,
2013-03-03 14:10:00,38.1,31.8,29.58,SW,221,2.0,2.0,78,0.00,,,0.00,Wunderground v.1.15,2013-03-03 19:10:00,
2013-03-03 14:20:00,38.1,32.2,29.58,SW,218,2.0,2.0,79,0.00,,,0.00,Wunderground v.1.15,2013-03-03 19:20:00,
2013-03-03 14:30:00,38.2,32.3,29.58,West,267,1.0,18.0,79,0.00,,,0.00,Wunderground v.1.15,2013-03-03 19:30:00,
2013-03-03 14:40:00,38.1,32.2,29.58,WSW,253,1.0,1.0,79,0.00,,,0.00,Wunderground v.1.15,2013-03-03 19:40:00,
2013-03-03 14:49:00,38.1,31.5,29.58,West,264,1.0,18.0,77,0.00,,,0.00,Wunderground v.1.15,2013-03-03 19:49:00,
2013-03-03 15:00:00,38.2,31.6,29.58,WNW,285,1.0,18.0,77,0.00,,,0.00,Wunderground v.1.15,2013-03-03 20:00:00,
2013-03-03 15:10:00,38.3,32.0,29.58,North,9,1.0,18.0,78,0.00,,,0.00,Wunderground v.1.15,2013-03-03 20:10:00,
2013-03-03 15:20:00,38.3,31.4,29.58,WSW,256,1.0,18.0,76,0.00,,,0.00,Wunderground v.1.15,2013-03-03 20:20:00,
2013-03-03 15:30:00,38.2,31.6,29.58,SSE,155,1.0,18.0,77,0.00,,,0.00,Wunderground v.1.15,2013-03-03 20:30:00,
2013-03-03 15:40:00,38.1,31.5,29.58,WNW,283,1.0,18.0,77,0.00,,,0.00,Wunderground v.1.15,2013-03-03 20:40:00,
2013-03-03 15:50:00,37.7,31.1,29.58,West,264,1.0,1.0,77,0.00,,,0.00,Wunderground v.1.15,2013-03-03 20:50:00,
2013-03-03 16:00:00,37.5,31.6,29.57,West,262,1.0,1.0,79,0.00,,,0.00,Wunderground v.1.15,2013-03-03 21:00:00,
2013-03-03 16:10:00,37.4,31.5,29.57,SSW,203,1.0,18.0,79,0.00,,,0.00,Wunderground v.1.15,2013-03-03 21:10:00,
2013-03-03 16:20:00,37.1,31.2,29.58,WSW,257,2.0,18.0,79,0.00,,,0.00,Wunderground v.1.15,2013-03-03 21:20:00,
2013-03-03 16:29:00,36.9,30.7,29.58,SW,222,1.0,18.0,78,0.00,,,0.00,Wunderground v.1.15,2013-03-03 21:29:00,
2013-03-03 16:40:00,36.7,30.5,29.58,WNW,294,2.0,18.0,78,0.00,,,0.00,Wunderground v.1.15,2013-03-03 21:40:00,
2013-03-03 16:50:00,36.5,30.6,29.58,WSW,257,2.0,18.0,79,0.00,,,0.00,Wunderground v.1.15,2013-03-03 21:50:00,
2013-03-03 17:00:00,36.4,30.5,29.58,WNW,300,1.0,18.0,79,0.00,,,0.00,Wunderground v.1.15,2013-03-03 22:00:00,
2013-03-03 17:10:00,36.5,30.9,29.58,West,262,1.0,1.0,80,0.00,,,0.00,Wunderground v.1.15,2013-03-03 22:10:00,
2013-03-03 17:20:00,36.5,30.6,29.58,West,270,0.0,18.0,79,0.00,,,0.00,Wunderground v.1.15,2013-03-03 22:20:00,
2013-03-03 17:30:00,36.4,30.8,29.58,WSW,249,0.0,18.0,80,0.00,,,0.00,Wunderground v.1.15,2013-03-03 22:30:00,
2013-03-03 17:40:00,36.3,31.0,29.58,West,281,0.0,18.0,81,0.00,,,0.00,Wunderground v.1.15,2013-03-03 22:40:00,
2013-03-03 17:50:00,36.2,30.9,29.58,West,281,0.0,18.0,81,0.00,,,0.00,Wunderground v.1.15,2013-03-03 22:50:00,
2013-03-03 18:00:00,36.1,31.1,29.58,West,281,0.0,18.0,82,0.00,,,0.00,Wunderground v.1.15,2013-03-03 23:00:00,
2013-03-03 18:10:00,35.9,30.6,29.59,West,281,0.0,18.0,81,0.00,,,0.00,Wunderground v.1.15,2013-03-03 23:10:00,
2013-03-03 18:20:00,35.7,30.7,29.59,West,281,0.0,18.0,82,0.00,,,0.00,Wunderground v.1.15,2013-03-03 23:20:00,
2013-03-03 18:30:00,35.5,30.5,29.59,West,281,0.0,18.0,82,0.00,,,0.00,Wunderground v.1.15,2013-03-03 23:30:00,
2013-03-03 18:40:00,35.4,30.8,29.59,West,281,0.0,18.0,83,0.00,,,0.00,Wunderground v.1.15,2013-03-03 23:40:00,
2013-03-03 18:50:00,35.5,30.8,29.59,West,281,0.0,18.0,83,0.00,,,0.00,Wunderground v.1.15,2013-03-03 23:50:00,
2013-03-03 19:00:00,35.4,31.0,29.59,West,281,0.0,18.0,84,0.00,,,0.00,Wunderground v.1.15,2013-03-04 00:00:00,
2013-03-03 19:10:00,35.3,30.9,29.59,West,281,0.0,18.0,84,0.00,,,0.00,Wunderground v.1.15,2013-03-04 00:10:00,
2013-03-03 19:20:00,35.1,30.8,29.59,West,281,0.0,18.0,84,0.00,,,0.00,Wunderground v.1.15,2013-03-04 00:20:00,
2013-03-03 19:30:00,35.1,31.0,29.59,West,281,0.0,18.0,85,0.00,,,0.00,Wunderground v.1.15,2013-03-04 00:30:00,
2013-03-03 19:40:00,35.1,31.0,29.59,West,281,0.0,18.0,85,0.00,,,0.00,Wunderground v.1.15,2013-03-04 00:40:00,
2013-03-03 19:49:00,35.1,31.3,29.59,West,281,0.0,18.0,86,0.00,,,0.00,Wunderground v.1.15,2013-03-04 00:49:00,
2013-03-03 20:00:00,35.1,31.0,29.59,West,281,0.0,18.0,85,0.00,,,0.00,Wunderground v.1.15,2013-03-04 01:00:00,
2013-03-03 20:10:00,35.2,31.4,29.59,West,281,0.0,18.0,86,0.00,,,0.00,Wunderground v.1.15,2013-03-04 01:10:00,
2013-03-03 20:20:00,35.1,31.3,29.59,WSW,250,0.0,18.0,86,0.00,,,0.00,Wunderground v.1.15,2013-03-04 01:20:00,
2013-03-03 20:30:00,35.1,31.0,29.59,West,276,0.0,18.0,85,0.00,,,0.00,Wunderground v.1.15,2013-03-04 01:30:00,
2013-03-03 20:40:00,35.1,31.0,29.59,WSW,255,0.0,18.0,85,0.00,,,0.00,Wunderground v.1.15,2013-03-04 01:40:00,
2013-03-03 20:49:00,35.1,31.0,29.59,WNW,290,0.0,18.0,85,0.00,,,0.00,Wunderground v.1.15,2013-03-04 01:49:00,
2013-03-03 21:00:00,35.0,30.9,29.59,WSW,250,0.0,18.0,85,0.00,,,0.00,Wunderground v.1.15,2013-03-04 02:00:00,
2013-03-03 21:10:00,35.0,30.7,29.59,WSW,250,0.0,18.0,84,0.00,,,0.00,Wunderground v.1.15,2013-03-04 02:10:00,
2013-03-03 21:20:00,35.0,30.7,29.59,SW,231,0.0,18.0,84,0.00,,,0.00,Wunderground v.1.15,2013-03-04 02:20:00,
2013-03-03 21:30:00,35.0,30.7,29.59,WSW,241,0.0,18.0,84,0.00,,,0.00,Wunderground v.1.15,2013-03-04 02:30:00,
2013-03-03 21:40:00,35.0,30.7,29.59,WSW,241,0.0,18.0,84,0.00,,,0.00,Wunderground v.1.15,2013-03-04 02:40:00,
2013-03-03 21:50:00,34.9,30.6,29.59,SW,233,0.0,18.0,84,0.00,,,0.00,Wunderground v.1.15,2013-03-04 02:50:00,
2013-03-03 22:00:00,34.8,30.5,29.59,SW,233,0.0,18.0,84,0.00,,,0.00,Wunderground v.1.15,2013-03-04 03:00:00,
2013-03-03 22:10:00,34.7,30.4,29.59,SW,228,0.0,18.0,84,0.00,,,0.00,Wunderground v.1.15,2013-03-04 03:10:00,
2013-03-03 22:20:00,34.7,30.7,29.58,SW,228,0.0,18.0,85,0.00,,,0.00,Wunderground v.1.15,2013-03-04 03:20:00,
2013-03-03 22:30:00,34.6,30.6,29.59,WNW,285,0.0,18.0,85,0.00,,,0.00,Wunderground v.1.15,2013-03-04 03:30:00,
2013-03-03 22:40:00,34.6,30.6,29.58,NW,309,0.0,18.0,85,0.00,,,0.00,Wunderground v.1.15,2013-03-04 03:40:00,
2013-03-03 22:49:00,34.7,30.9,29.59,WNW,284,1.0,18.0,86,0.00,,,0.00,Wunderground v.1.15,2013-03-04 03:49:00,
2013-03-03 23:00:00,34.9,31.7,29.58,WNW,287,1.0,18.0,88,0.00,,,0.00,Wunderground v.1.15,2013-03-04 04:00:00,
2013-03-03 23:10:00,34.9,32.0,29.58,WNW,284,2.0,2.0,89,0.00,,,0.00,Wunderground v.1.15,2013-03-04 04:10:00,
2013-03-03 23:20:00,34.8,31.9,29.59,West,280,2.0,2.0,89,0.00,,,0.00,Wunderground v.1.15,2013-03-04 04:20:00,
2013-03-03 23:30:00,34.5,31.9,29.59,WSW,256,2.0,18.0,90,0.00,,,0.00,Wunderground v.1.15,2013-03-04 04:30:00,
2013-03-03 23:40:00,34.3,31.7,29.58,WNW,284,1.0,18.0,90,0.00,,,0.00,Wunderground v.1.15,2013-03-04 04:40:00,
2013-03-03 23:50:00,34.1,31.7,29.58,West,280,2.0,2.0,91,0.00,,,0.00,Wunderground v.1.15,2013-03-04 04:50:00,